�������l�o���
Date,Time,MP-1(��Sv/h),MP-2(��Sv/h),MP-3(��Sv/h),MP-4(��Sv/h),MP-5(��Sv/h),MP-6(��Sv/h),MP-7(��Sv/h),MP-8(��Sv/h),����,����(m/s),���J
2022/09/02,00:00,0.586,0.824,0.523,1.003,0.714,0.336,0.584,0.552,�k�k��,5.3,��
2022/09/02,00:10,0.588,0.823,0.523,1.001,0.714,0.337,0.584,0.550,�k�k��,6.4,��
2022/09/02,00:20,0.587,0.822,0.523,1.002,0.714,0.335,0.583,0.550,�k,6.3,��
2022/09/02,00:30,0.587,0.822,0.523,1.003,0.715,0.336,0.585,0.551,�k,6.5,��
2022/09/02,00:40,0.587,0.824,0.523,1.000,0.716,0.336,0.584,0.551,�k,5.4,��
2022/09/02,00:50,0.587,0.823,0.523,1.001,0.714,0.335,0.584,0.550,�k,5.5,��
2022/09/02,01:00,0.587,0.822,0.524,1.001,0.715,0.336,0.583,0.552,�k�k��,5.2,��
2022/09/02,01:10,0.584,0.823,0.523,1.001,0.715,0.335,0.584,0.551,�k�k��,5.0,��
2022/09/02,01:20,0.587,0.822,0.523,1.001,0.715,0.337,0.583,0.550,�k�k��,4.0,��
2022/09/02,01:30,0.587,0.822,0.523,1.002,0.714,0.336,0.584,0.551,�k�k��,3.8,��
2022/09/02,01:40,0.587,0.824,0.525,1.002,0.716,0.337,0.585,0.551,�k�k��,3.7,��
2022/09/02,01:50,0.587,0.823,0.524,1.003,0.715,0.337,0.584,0.550,�k,3.5,��
2022/09/02,02:00,0.587,0.823,0.523,1.003,0.715,0.337,0.585,0.550,�k,3.4,��
2022/09/02,02:10,0.587,0.826,0.523,1.002,0.715,0.336,0.583,0.549,�k,2.9,��
2022/09/02,02:20,0.587,0.824,0.523,1.002,0.715,0.336,0.584,0.550,�k,3.8,��
2022/09/02,02:30,0.587,0.823,0.523,1.001,0.715,0.339,0.584,0.550,�k,3.5,��
2022/09/02,02:40,0.587,0.823,0.523,1.002,0.717,0.338,0.584,0.551,�k,2.2,��
2022/09/02,02:50,0.586,0.824,0.524,1.001,0.715,0.337,0.583,0.552,�k,2.8,��
2022/09/02,03:00,0.589,0.824,0.524,1.001,0.716,0.337,0.585,0.551,�k,2.5,��
2022/09/02,03:10,0.587,0.823,0.523,1.002,0.714,0.336,0.584,0.550,�k,2.8,��
2022/09/02,03:20,0.590,0.823,0.525,1.001,0.713,0.336,0.583,0.551,�k,2.6,��
2022/09/02,03:30,0.588,0.822,0.522,0.999,0.715,0.337,0.583,0.550,�k,1.5,��
2022/09/02,03:40,0.588,0.823,0.523,1.000,0.715,0.337,0.583,0.551,�k,1.7,��
2022/09/02,03:50,0.587,0.822,0.524,1.002,0.713,0.337,0.584,0.552,�k,1.7,��
2022/09/02,04:00,0.589,0.825,0.522,1.002,0.715,0.338,0.583,0.551,�k,1.7,��
2022/09/02,04:10,0.587,0.825,0.523,1.002,0.716,0.338,0.584,0.550,�k,3.8,��
2022/09/02,04:20,0.586,0.825,0.524,1.000,0.716,0.336,0.585,0.551,�k�k��,3.9,��
2022/09/02,04:30,0.586,0.824,0.524,1.001,0.715,0.336,0.583,0.551,�k,4.1,�L
2022/09/02,04:40,0.587,0.823,0.523,1.004,0.716,0.337,0.584,0.551,�k,4.9,�L
2022/09/02,04:50,0.586,0.823,0.523,1.002,0.713,0.337,0.584,0.550,�k,4.9,�L
2022/09/02,05:00,0.586,0.824,0.523,1.002,0.714,0.337,0.583,0.552,�k,4.4,�L
2022/09/02,05:10,0.587,0.823,0.523,1.001,0.717,0.336,0.584,0.550,�k�k��,5.4,�L
2022/09/02,05:20,0.586,0.820,0.522,1.001,0.716,0.336,0.584,0.551,�k,5.6,�L
2022/09/02,05:30,0.586,0.823,0.523,1.003,0.714,0.336,0.584,0.550,�k,6.5,�L
2022/09/02,05:40,0.587,0.821,0.523,1.003,0.715,0.335,0.584,0.551,�k,6.2,��
2022/09/02,05:50,0.586,0.823,0.522,1.002,0.715,0.335,0.584,0.550,�k,5.1,��
2022/09/02,06:00,0.588,0.823,0.523,1.002,0.716,0.335,0.584,0.549,�k,4.8,��
2022/09/02,06:10,0.586,0.821,0.525,1.002,0.714,0.337,0.585,0.549,�k,5.1,��
2022/09/02,06:20,0.585,0.825,0.524,1.001,0.715,0.336,0.584,0.549,�k,4.5,��
2022/09/02,06:30,0.585,0.822,0.523,1.003,0.714,0.335,0.584,0.551,�k,5.1,�L
2022/09/02,06:40,0.587,0.823,0.524,1.003,0.715,0.335,0.583,0.549,�k,4.3,�L
2022/09/02,06:50,0.586,0.824,0.522,1.003,0.716,0.336,0.582,0.550,�k,4.4,�L
2022/09/02,07:00,0.586,0.824,0.523,1.001,0.714,0.334,0.583,0.550,�k,4.5,��
2022/09/02,07:10,0.585,0.821,0.522,1.002,0.714,0.335,0.584,0.548,�k,3.2,�L
2022/09/02,07:20,0.584,0.823,0.522,1.002,0.714,0.336,0.584,0.550,�k,3.5,��
2022/09/02,07:30,0.586,0.822,0.522,1.001,0.714,0.336,0.585,0.549,�k,3.7,��
2022/09/02,07:40,0.585,0.822,0.521,1.002,0.716,0.335,0.583,0.550,�k,3.2,��
2022/09/02,07:50,0.585,0.821,0.523,1.001,0.714,0.336,0.584,0.550,�k,3.4,��
2022/09/02,08:00,0.588,0.822,0.523,1.001,0.716,0.336,0.584,0.549,�k�k��,4.1,��
2022/09/02,08:10,0.585,0.822,0.522,1.003,0.714,0.335,0.584,0.551,�k,3.5,��
2022/09/02,08:20,0.586,0.822,0.523,1.002,0.714,0.335,0.582,0.551,�k,2.9,��
2022/09/02,08:30,0.586,0.822,0.524,1.003,0.717,0.335,0.583,0.549,�k�k��,3.3,��
2022/09/02,08:40,0.586,0.820,0.523,1.002,0.716,0.335,0.582,0.550,�k,3.0,��
2022/09/02,08:50,0.587,0.821,0.522,1.003,0.714,0.334,0.583,0.549,�k,3.2,��
2022/09/02,09:00,0.585,0.818,0.523,1.004,0.715,0.335,0.584,0.548,�k,3.9,��
2022/09/02,09:10,0.584,0.817,0.523,1.002,0.715,0.335,0.582,0.549,�k,2.3,��
2022/09/02,09:20,0.585,0.818,0.521,1.001,0.715,0.335,0.582,0.550,�k,2.9,��
2022/09/02,09:30,0.587,0.820,0.522,1.004,0.714,0.336,0.583,0.549,�k,2.6,�L
2022/09/02,09:40,0.585,0.819,0.521,1.003,0.715,0.335,0.582,0.550,�k,2.6,��
2022/09/02,09:50,0.588,0.821,0.523,1.004,0.714,0.335,0.583,0.549,�k�k��,2.2,��
2022/09/02,10:00,0.585,0.823,0.524,1.003,0.716,0.334,0.584,0.550,�k,2.6,�L
2022/09/02,10:10,0.587,0.823,0.522,1.004,0.716,0.336,0.584,0.550,�k,3.1,��
2022/09/02,10:20,0.587,0.821,0.522,1.002,0.717,0.334,0.583,0.552,�k�k��,3.7,��
2022/09/02,10:30,0.586,0.822,0.523,1.004,0.716,0.336,0.584,0.551,�k,3.7,��
2022/09/02,10:40,0.586,0.823,0.523,1.004,0.717,0.334,0.581,0.550,�k,2.5,��
2022/09/02,10:50,0.587,0.822,0.522,1.003,0.716,0.335,0.583,0.550,�k,2.6,��
2022/09/02,11:00,0.587,0.823,0.524,1.003,0.715,0.335,0.582,0.551,�k�k��,2.2,��
2022/09/02,11:10,0.588,0.822,0.524,1.003,0.717,0.334,0.583,0.550,�k�k��,3.2,��
2022/09/02,11:20,0.588,0.823,0.524,1.006,0.716,0.335,0.583,0.551,�k�k��,3.5,��
2022/09/02,11:30,0.587,0.823,0.525,1.003,0.716,0.334,0.584,0.550,�k�k��,4.4,��
2022/09/02,11:40,0.587,0.823,0.525,1.003,0.716,0.333,0.583,0.551,�k�k��,3.4,��
2022/09/02,11:50,0.586,0.825,0.524,1.005,0.718,0.333,0.584,0.547,�k�k��,3.4,��
2022/09/02,12:00,0.586,0.826,0.525,1.004,0.717,0.334,0.583,0.549,�k,2.3,��
2022/09/02,12:10,0.587,0.828,0.523,1.003,0.717,0.335,0.584,0.549,�k�k��,3.0,��
2022/09/02,12:20,0.588,0.828,0.523,1.002,0.716,0.335,0.584,0.549,���k��,2.3,��
2022/09/02,12:30,0.588,0.826,0.523,1.003,0.717,0.335,0.584,0.550,�k��,2.0,��
2022/09/02,12:40,0.589,0.826,0.524,1.006,0.717,0.335,0.585,0.548,�k��,2.6,��
2022/09/02,12:50,0.589,0.827,0.523,1.006,0.717,0.335,0.584,0.550,�k��,2.3,��
2022/09/02,13:00,0.591,0.827,0.524,1.007,0.717,0.335,0.584,0.551,�k��,2.3,��
2022/09/02,13:10,0.589,0.826,0.524,1.007,0.717,0.336,0.584,0.550,�k��,1.9,��
2022/09/02,13:20,0.590,0.827,0.524,1.004,0.718,0.337,0.586,0.550,�k��,1.2,��
2022/09/02,13:30,0.588,0.826,0.524,1.006,0.717,0.336,0.584,0.550,�k��,1.4,��
2022/09/02,13:40,0.587,0.825,0.524,1.005,0.717,0.337,0.585,0.550,��,0.9,��
2022/09/02,13:50,0.589,0.825,0.526,1.007,0.717,0.335,0.585,0.549,��,1.2,��
2022/09/02,14:00,0.591,0.827,0.524,1.006,0.719,0.335,0.585,0.550,��,1.5,��
2022/09/02,14:10,0.591,0.827,0.524,1.004,0.721,0.336,0.585,0.549,���k��,1.2,��
2022/09/02,14:20,0.590,0.829,0.525,1.005,0.722,0.340,0.584,0.548,�k��,1.2,��
2022/09/02,14:30,0.591,0.827,0.526,1.002,0.722,0.338,0.583,0.549,���k��,1.5,��
2022/09/02,14:40,0.591,0.827,0.525,1.008,0.722,0.336,0.584,0.550,���k��,1.2,�L
2022/09/02,14:50,0.591,0.827,0.527,1.006,0.719,0.337,0.585,0.550,���k��,1.7,��
2022/09/02,15:00,0.591,0.827,0.527,1.007,0.720,0.338,0.583,0.550,���k��,1.2,�L
2022/09/02,15:10,0.590,0.828,0.525,1.007,0.721,0.337,0.585,0.550,���쓌,2.0,�L
2022/09/02,15:20,0.590,0.831,0.525,1.005,0.719,0.336,0.585,0.552,��,1.7,�L
2022/09/02,15:30,0.588,0.830,0.527,1.006,0.720,0.337,0.587,0.551,���쓌,1.1,��
2022/09/02,15:40,0.586,0.834,0.525,1.007,0.721,0.336,0.586,0.552,���k��,0.9,��
2022/09/02,15:50,0.587,0.830,0.526,1.005,0.719,0.337,0.585,0.551,���k��,1.1,��
2022/09/02,16:00,0.587,0.832,0.525,1.007,0.721,0.336,0.587,0.553,�k�k��,1.2,��
2022/09/02,16:10,0.584,0.830,0.525,1.006,0.720,0.338,0.587,0.552,�k��,1.2,��
2022/09/02,16:20,0.586,0.831,0.525,1.007,0.721,0.337,0.588,0.552,�k��,1.1,��
2022/09/02,16:30,0.586,0.833,0.527,1.006,0.720,0.337,0.585,0.552,���k��,0.9,��
2022/09/02,16:40,0.587,0.832,0.526,1.007,0.721,0.336,0.587,0.552,���k��,1.1,��
2022/09/02,16:50,0.586,0.832,0.526,1.006,0.723,0.337,0.585,0.551,�k�k��,0.8,��
2022/09/02,17:00,0.589,0.830,0.527,1.006,0.721,0.337,0.585,0.551,���k��,0.8,��
2022/09/02,17:10,0.589,0.831,0.526,1.006,0.720,0.338,0.586,0.552,�k�k��,0.9,��
2022/09/02,17:20,0.590,0.833,0.525,1.007,0.720,0.338,0.586,0.552,���k��,0.9,��
2022/09/02,17:30,0.588,0.831,0.527,1.007,0.719,0.337,0.587,0.552,��,0.8,��
2022/09/02,17:40,0.588,0.831,0.524,1.007,0.720,0.336,0.587,0.553,�k�k��,0.8,��
2022/09/02,17:50,0.589,0.832,0.527,1.009,0.721,0.337,0.587,0.552,���k��,0.9,�L
2022/09/02,18:00,0.588,0.832,0.526,1.007,0.720,0.337,0.586,0.552,��쓌,0.9,��
2022/09/02,18:10,0.587,0.833,0.526,1.009,0.722,0.338,0.587,0.553,�쓌,0.9,��
2022/09/02,18:20,0.595,0.833,0.527,1.009,0.723,0.337,0.586,0.550,��쓌,1.2,��
2022/09/02,18:30,0.595,0.833,0.527,1.007,0.720,0.336,0.587,0.552,��,1.4,��
2022/09/02,18:40,0.594,0.833,0.526,1.006,0.721,0.337,0.588,0.552,��쓌,1.2,��
2022/09/02,18:50,0.594,0.833,0.527,1.008,0.721,0.336,0.587,0.553,��쓌,2.0,��
2022/09/02,19:00,0.593,0.833,0.525,1.009,0.722,0.337,0.587,0.552,��,2.0,��
2022/09/02,19:10,0.593,0.834,0.526,1.008,0.721,0.337,0.586,0.552,��쓌,2.0,��
2022/09/02,19:20,0.594,0.833,0.527,1.009,0.720,0.338,0.587,0.553,��쓌,2.3,��
2022/09/02,19:30,0.593,0.834,0.526,1.008,0.722,0.337,0.587,0.552,��쓌,1.7,��
2022/09/02,19:40,0.593,0.833,0.528,1.006,0.721,0.337,0.588,0.552,��쓌,2.0,��
2022/09/02,19:50,0.591,0.836,0.526,1.008,0.721,0.336,0.587,0.552,��쓌,2.0,��
2022/09/02,20:00,0.591,0.833,0.526,1.007,0.721,0.337,0.587,0.553,��,2.6,��
2022/09/02,20:10,0.593,0.835,0.526,1.008,0.721,0.336,0.587,0.553,��,3.0,��
2022/09/02,20:20,0.591,0.833,0.526,1.008,0.722,0.337,0.586,0.552,��,3.3,��
2022/09/02,20:30,0.592,0.834,0.527,1.009,0.722,0.338,0.587,0.551,��,3.1,��
2022/09/02,20:40,0.591,0.833,0.528,1.008,0.723,0.338,0.587,0.552,��쐼,3.4,��
2022/09/02,20:50,0.593,0.836,0.527,1.009,0.722,0.337,0.586,0.552,��쐼,3.3,��
2022/09/02,21:00,0.592,0.835,0.527,1.011,0.722,0.336,0.588,0.552,��,3.7,��
2022/09/02,21:10,0.592,0.837,0.527,1.008,0.721,0.338,0.587,0.553,��,3.7,��
2022/09/02,21:20,0.592,0.835,0.528,1.009,0.722,0.337,0.588,0.554,��,4.5,��
2022/09/02,21:30,0.592,0.837,0.527,1.007,0.721,0.336,0.587,0.553,��,3.5,��
2022/09/02,21:40,0.591,0.834,0.527,1.009,0.723,0.338,0.587,0.552,��,3.2,��
2022/09/02,21:50,0.589,0.833,0.527,1.006,0.724,0.337,0.588,0.553,��,3.8,��
2022/09/02,22:00,0.592,0.833,0.528,1.009,0.721,0.338,0.588,0.552,��,2.6,��
2022/09/02,22:10,0.591,0.837,0.527,1.008,0.722,0.337,0.589,0.552,��,2.3,��
2022/09/02,22:20,0.591,0.834,0.528,1.009,0.723,0.337,0.586,0.551,��,2.6,��
2022/09/02,22:30,0.591,0.833,0.526,1.007,0.721,0.337,0.589,0.552,��,3.3,��
2022/09/02,22:40,0.590,0.834,0.527,1.009,0.723,0.337,0.588,0.552,��,2.6,��
2022/09/02,22:50,0.591,0.835,0.528,1.008,0.722,0.337,0.587,0.554,��쐼,1.9,��
2022/09/02,23:00,0.592,0.833,0.527,1.008,0.721,0.336,0.589,0.553,��,2.5,��
2022/09/02,23:10,0.591,0.834,0.527,1.006,0.722,0.337,0.588,0.553,�쓌,1.1,��
2022/09/02,23:20,0.592,0.833,0.526,1.009,0.723,0.336,0.590,0.553,��쐼,1.2,��
2022/09/02,23:30,0.590,0.835,0.527,1.008,0.722,0.337,0.588,0.551,��쐼,0.9,��
2022/09/02,23:40,0.591,0.833,0.526,1.010,0.723,0.337,0.588,0.550,��쐼,1.1,��
2022/09/02,23:50,0.590,0.834,0.527,1.010,0.722,0.338,0.589,0.553,��쐼,1.5,��
